Weather History for KRAS - October, 2012

Change the Weather History Date:

Wednesday, October 24, 2012

  Actual Average (KCRP) Record (KCRP)
Temperature  
Mean Temperature 80 °F 73 °F  
Max Temperature 82 °F 83 °F 94 °F (2001)
Min Temperature 77 °F 63 °F 43 °F (1979)
Degree Days  
Heating Degree Days 0 1  
Month to date heating degree days 1  
Since 1 July heating degree days 1  
Cooling Degree Days 14 8  
Month to date cooling degree days 257  
Year to date cooling degree days 3300  
Growing Degree Days 30 (Base 50)    
Moisture  
Dew Point 69 °F    
Average Humidity 72    
Maximum Humidity 78    
Minimum Humidity 62    
Precipitation  
Precipitation 0.00 in 0.11 in 2.94 in (2002)
Month to date precipitation 2.91  
Year to date precipitation 27.23  
Snow  
Snow 0.00 in - - ()
Month to date snowfall  
Since 1 July snowfall  
Since 1 September snowfall  
Snow Depth -    
Sea Level Pressure  
Sea Level Pressure 29.93 in    
Wind  
Wind Speed 10 mph (SSE)    
Max Wind Speed 14 mph    
Max Gust Speed 18 mph    
Visibility 10 miles    
Events      
T = Trace of Precipitation, MM = Missing Value Source: NWS Daily Summary

Daily Weather History Graph

Daily Weather History Graph

Search for Another Location

Airport or City:

Trip Planner

Search our weather history database for the weather conditions in past years. The results will help you decide how hot, cold, wet, or windy it might be!

Date:

Astronomy

Oct. 24, 2012 Rise Set
Actual Time 7:34 AM CDT 6:50 PM CDT
Civil Twilight 7:10 AM CDT 7:14 PM CDT
Nautical Twilight 6:42 AM CDT 7:41 PM CDT
Astronomical Twilight 6:15 AM CDT 8:08 PM CDT
Moon 3:45 PM CDT (10/24) 2:55 AM CDT (10/24)
Length of Visible Light 12h 03m
Length of Day
11h 15m
Waxing Gibbous, 76% of the Moon is Illuminated
Oct 24
Waxing Gibbous
Oct 29
Full
Nov 6
Last Quarter
Nov 13
New
Nov 20
First Quarter

Hourly Weather History & Observations

Time (CDT) Temp. Heat Index Dew Point Humidity Pressure Visibility Wind Dir Wind Speed Gust Speed Precip Events Conditions
12:15 AM 78.8 °F - 68.0 °F 69% 29.96 in 10.0 mi SE 13.8 mph - N/A   Scattered Clouds
12:35 AM 77.0 °F - 68.0 °F 74% 29.96 in 10.0 mi SSE 9.2 mph 17.3 mph N/A   Mostly Cloudy
12:55 AM 77.0 °F - 68.0 °F 74% 29.96 in 10.0 mi SSE 12.7 mph - N/A   Scattered Clouds
1:15 AM 77.0 °F - 68.0 °F 74% 29.96 in 10.0 mi SE 11.5 mph - N/A   Clear
1:35 AM 77.0 °F - 68.0 °F 74% 29.95 in 10.0 mi SSE 13.8 mph 18.4 mph N/A   Clear
1:55 AM 77.0 °F - 68.0 °F 74% 29.95 in 10.0 mi SSE 11.5 mph 16.1 mph N/A   Clear
2:15 AM 77.0 °F - 68.0 °F 74% 29.95 in 10.0 mi SSE 10.4 mph - N/A   Clear
2:35 AM 77.0 °F - 68.0 °F 74% 29.95 in 10.0 mi SSE 9.2 mph - N/A   Clear
2:55 AM 77.0 °F - 68.0 °F 74% 29.94 in 10.0 mi SSE 10.4 mph - N/A   Clear
3:15 AM 77.0 °F - 69.8 °F 78% 29.94 in 10.0 mi SSE 9.2 mph - N/A   Clear
3:35 AM 77.0 °F - 68.0 °F 74% 29.93 in 10.0 mi SSE 10.4 mph - N/A   Clear
3:55 AM 77.0 °F - 68.0 °F 74% 29.93 in 10.0 mi SSE 10.4 mph - N/A   Scattered Clouds
4:15 AM 77.0 °F - 68.0 °F 74% 29.93 in 10.0 mi South 9.2 mph - N/A   Scattered Clouds
4:35 AM 77.0 °F - 68.0 °F 74% 29.93 in 10.0 mi South 11.5 mph - N/A   Scattered Clouds
4:55 AM 77.0 °F - 69.8 °F 78% 29.93 in 10.0 mi South 10.4 mph - N/A   Clear
5:15 AM 77.0 °F - 69.8 °F 78% 29.93 in 10.0 mi South 8.1 mph - N/A   Scattered Clouds
5:35 AM 77.0 °F - 68.0 °F 74% 29.94 in 10.0 mi SSE 9.2 mph - N/A   Scattered Clouds
5:55 AM 77.0 °F - 68.0 °F 74% 29.94 in 10.0 mi South 11.5 mph - N/A   Scattered Clouds
6:15 AM 77.0 °F - 68.0 °F 74% 29.94 in 10.0 mi SSE 10.4 mph - N/A   Clear
6:35 AM 77.0 °F - 68.0 °F 74% 29.95 in 10.0 mi SSE 9.2 mph - N/A   Clear
6:55 AM 77.0 °F - 68.0 °F 74% 29.95 in 10.0 mi South 8.1 mph - N/A   Clear
7:15 AM 77.0 °F - 68.0 °F 74% 29.96 in 10.0 mi SSE 6.9 mph - N/A   Clear
7:35 AM 77.0 °F - 68.0 °F 74% 29.96 in 10.0 mi SSE 9.2 mph - N/A   Clear
7:55 AM 77.0 °F - 68.0 °F 74% 29.96 in 10.0 mi SSE 9.2 mph - N/A   Clear
8:15 AM 77.0 °F - 69.8 °F 78% 29.96 in 10.0 mi SSE 9.2 mph - N/A   Clear
8:55 AM 78.8 °F - 68.0 °F 69% 29.98 in 10.0 mi SSE 10.4 mph - N/A   Clear
9:35 AM 80.6 °F 83.2 °F 68.0 °F 65% 29.99 in 10.0 mi SSE 8.1 mph - N/A   Clear
9:55 AM 80.6 °F 83.9 °F 69.8 °F 70% 29.99 in 10.0 mi South 8.1 mph - N/A   Scattered Clouds
10:15 AM 80.6 °F 83.2 °F 68.0 °F 65% 29.99 in 10.0 mi SSE 8.1 mph - N/A   Clear
10:35 AM 80.6 °F 83.2 °F 68.0 °F 65% 29.99 in 10.0 mi SSE 6.9 mph - N/A   Clear
10:55 AM 80.6 °F 83.2 °F 68.0 °F 65% 29.99 in 10.0 mi SSE 9.2 mph - N/A   Clear
11:15 AM 82.4 °F 86.3 °F 69.8 °F 66% 29.99 in 10.0 mi SSE 6.9 mph - N/A   Clear
11:35 AM 82.4 °F 86.3 °F 69.8 °F 66% 29.99 in 10.0 mi South 6.9 mph - N/A   Clear
11:55 AM 82.4 °F 86.3 °F 69.8 °F 66% 29.98 in 10.0 mi SSE 6.9 mph - N/A   Clear
12:15 PM 82.4 °F 86.3 °F 69.8 °F 66% 29.98 in 10.0 mi SSE 6.9 mph - N/A   Clear
12:35 PM 82.4 °F 86.3 °F 69.8 °F 66% 29.97 in 10.0 mi SSE 6.9 mph - N/A   Clear
12:55 PM 82.4 °F 86.3 °F 69.8 °F 66% 29.96 in 10.0 mi South 6.9 mph - N/A   Clear
1:15 PM 82.4 °F 86.3 °F 69.8 °F 66% 29.96 in 10.0 mi SSE 8.1 mph - N/A   Clear
1:35 PM 82.4 °F 86.3 °F 69.8 °F 66% 29.95 in 10.0 mi South 5.8 mph - N/A   Clear
2:15 PM 82.4 °F 86.3 °F 69.8 °F 66% 29.93 in 10.0 mi SSE 8.1 mph - N/A   Clear
2:35 PM 82.4 °F 85.4 °F 68.0 °F 62% 29.92 in 10.0 mi SSE 8.1 mph - N/A   Clear
2:55 PM 82.4 °F 85.4 °F 68.0 °F 62% 29.92 in 10.0 mi SE 8.1 mph - N/A   Clear
3:15 PM 82.4 °F 86.3 °F 69.8 °F 66% 29.91 in 10.0 mi SE 8.1 mph - N/A   Clear
3:35 PM 82.4 °F 86.3 °F 69.8 °F 66% 29.91 in 10.0 mi SE 8.1 mph - N/A   Clear
3:55 PM 82.4 °F 86.3 °F 69.8 °F 66% 29.90 in 10.0 mi SE 8.1 mph - N/A   Clear
4:15 PM 82.4 °F 86.3 °F 69.8 °F 66% 29.90 in 10.0 mi SE 8.1 mph - N/A   Clear
4:35 PM 82.4 °F 86.3 °F 69.8 °F 66% 29.89 in 10.0 mi SE 8.1 mph - N/A   Clear
4:55 PM 82.4 °F 87.2 °F 71.6 °F 70% 29.89 in 10.0 mi SE 8.1 mph - N/A   Clear
5:15 PM 82.4 °F 86.3 °F 69.8 °F 66% 29.89 in 10.0 mi SE 9.2 mph - N/A   Scattered Clouds
5:35 PM 80.6 °F 83.9 °F 69.8 °F 70% 29.89 in 10.0 mi SE 10.4 mph - N/A   Clear
5:55 PM 80.6 °F 83.9 °F 69.8 °F 70% 29.89 in 10.0 mi ESE 11.5 mph - N/A   Scattered Clouds
6:15 PM 80.6 °F 83.9 °F 69.8 °F 70% 29.89 in 10.0 mi ESE 11.5 mph 18.4 mph N/A   Scattered Clouds
6:35 PM 78.8 °F - 69.8 °F 74% 29.89 in 10.0 mi ESE 9.2 mph 16.1 mph N/A   Clear
6:55 PM 78.8 °F - 69.8 °F 74% 29.90 in 10.0 mi ESE 11.5 mph - N/A   Clear
7:15 PM 78.8 °F - 69.8 °F 74% 29.90 in 10.0 mi ESE 10.4 mph - N/A   Clear
7:35 PM 78.8 °F - 71.6 °F 78% 29.90 in 10.0 mi ESE 9.2 mph - N/A   Scattered Clouds
7:55 PM 78.8 °F - 71.6 °F 78% 29.91 in 10.0 mi SE 10.4 mph - N/A   Scattered Clouds
8:15 PM 78.8 °F - 71.6 °F 78% 29.91 in 10.0 mi SE 10.4 mph - N/A   Scattered Clouds
8:35 PM 78.8 °F - 71.6 °F 78% 29.91 in 10.0 mi SE 9.2 mph - N/A   Clear
8:55 PM 78.8 °F - 71.6 °F 78% 29.91 in 10.0 mi SE 10.4 mph - N/A   Clear
9:15 PM 78.8 °F - 71.6 °F 78% 29.91 in 10.0 mi SE 5.8 mph - N/A   Clear
9:35 PM 78.8 °F - 69.8 °F 74% 29.91 in 10.0 mi SE 6.9 mph - N/A   Clear
9:55 PM 78.8 °F - 69.8 °F 74% 29.91 in 10.0 mi SE 8.1 mph - N/A   Scattered Clouds
10:15 PM 78.8 °F - 71.6 °F 78% 29.91 in 10.0 mi ESE 10.4 mph - N/A   Scattered Clouds
10:35 PM 78.8 °F - 69.8 °F 74% 29.91 in 10.0 mi SE 10.4 mph - N/A   Scattered Clouds
10:55 PM 78.8 °F - 69.8 °F 74% 29.91 in 10.0 mi SE 12.7 mph 17.3 mph N/A   Scattered Clouds
11:15 PM 77.0 °F - 69.8 °F 78% 29.91 in 10.0 mi SSE 11.5 mph 17.3 mph N/A   Scattered Clouds
11:35 PM 77.0 °F - 69.8 °F 78% 29.90 in 10.0 mi SSE 11.5 mph - N/A   Clear
11:55 PM 77.0 °F - 69.8 °F 78% 29.90 in 10.0 mi SSE 10.4 mph - N/A   Clear